TimeEDT,TemperatureF,Dew PointF,Humidity,Sea Level PressureIn,VisibilityMPH,Wind Direction,Wind SpeedMPH,Gust SpeedMPH,PrecipitationIn,Events,Conditions,WindDirDegrees,DateUTC
12:22 AM,50.0,48.2,94,29.85,1.8,Calm,Calm,-,0.02,Rain,Light Rain,0,2013-04-11 04:22:00
12:35 AM,50.0,48.2,94,29.85,2.5,Calm,Calm,-,0.03,Rain,Light Rain,0,2013-04-11 04:35:00
12:47 AM,50.0,48.2,94,29.85,4.0,Calm,Calm,-,0.03,,Overcast,0,2013-04-11 04:47:00
12:54 AM,50.0,48.9,96,29.82,4.0,Calm,Calm,-,0.03,,Overcast,0,2013-04-11 04:54:00
1:40 AM,48.2,46.4,93,29.84,10.0,North,4.6,-,N/A,,Overcast,360,2013-04-11 05:40:00
1:54 AM,48.0,46.9,96,29.81,10.0,North,5.8,-,N/A,,Overcast,360,2013-04-11 05:54:00
2:12 AM,48.2,46.4,93,29.83,8.0,NNE,6.9,-,N/A,,Overcast,20,2013-04-11 06:12:00
2:22 AM,46.4,46.4,100,29.83,3.0,North,4.6,-,N/A,,Overcast,10,2013-04-11 06:22:00
2:42 AM,46.4,46.4,100,29.84,3.0,NE,3.5,-,N/A,,Overcast,40,2013-04-11 06:42:00
2:52 AM,46.4,44.6,93,29.83,2.0,ENE,4.6,-,N/A,,Overcast,60,2013-04-11 06:52:00
2:54 AM,46.9,45.0,93,29.80,2.0,ENE,3.5,-,N/A,,Overcast,60,2013-04-11 06:54:00
3:26 AM,46.4,44.6,93,29.85,1.5,NE,4.6,-,0.01,,Overcast,40,2013-04-11 07:26:00
3:54 AM,45.0,44.1,97,29.80,3.0,NE,5.8,-,0.01,,Overcast,40,2013-04-11 07:54:00
4:06 AM,44.6,44.6,100,29.82,8.0,NE,4.6,-,N/A,,Overcast,40,2013-04-11 08:06:00
4:38 AM,44.6,44.6,100,29.85,10.0,Calm,Calm,-,N/A,,Overcast,0,2013-04-11 08:38:00
4:54 AM,45.0,43.0,93,29.84,6.0,WNW,6.9,-,N/A,,Overcast,300,2013-04-11 08:54:00
5:04 AM,44.6,42.8,93,29.87,2.0,WNW,8.1,-,N/A,,Overcast,300,2013-04-11 09:04:00
5:11 AM,44.6,42.8,93,29.87,1.8,NW,5.8,-,N/A,,Overcast,310,2013-04-11 09:11:00
5:45 AM,42.8,42.8,100,29.89,2.5,WNW,9.2,-,N/A,,Overcast,300,2013-04-11 09:45:00
5:54 AM,43.0,42.1,97,29.88,3.0,NW,6.9,-,N/A,,Overcast,310,2013-04-11 09:54:00
6:30 AM,42.8,41.0,93,29.92,9.0,NW,5.8,-,N/A,,Overcast,310,2013-04-11 10:30:00
6:54 AM,41.0,39.9,96,29.91,6.0,NW,6.9,-,N/A,,Overcast,310,2013-04-11 10:54:00
7:41 AM,41.0,39.2,93,29.92,5.0,Calm,Calm,-,N/A,,Overcast,0,2013-04-11 11:41:00
7:54 AM,42.1,39.9,92,29.90,6.0,Calm,Calm,-,N/A,,Overcast,0,2013-04-11 11:54:00
8:40 AM,42.8,39.2,87,29.94,8.0,ENE,3.5,-,N/A,,Overcast,60,2013-04-11 12:40:00
8:50 AM,44.6,41.0,87,29.94,8.0,ENE,5.8,-,N/A,,Overcast,60,2013-04-11 12:50:00
8:54 AM,44.1,39.9,85,29.93,8.0,ENE,5.8,-,N/A,,Overcast,60,2013-04-11 12:54:00
9:23 AM,44.6,37.4,76,29.95,10.0,North,9.2,-,N/A,,Scattered Clouds,10,2013-04-11 13:23:00
9:37 AM,44.6,39.2,81,29.95,10.0,North,4.6,-,N/A,,Mostly Cloudy,10,2013-04-11 13:37:00
9:49 AM,44.6,37.4,76,29.95,10.0,NE,6.9,-,N/A,,Overcast,50,2013-04-11 13:49:00
9:54 AM,44.1,37.9,79,29.94,10.0,NE,5.8,-,N/A,,Overcast,50,2013-04-11 13:54:00
10:19 AM,44.6,37.4,76,29.98,10.0,Variable,3.5,-,N/A,,Overcast,0,2013-04-11 14:19:00
10:54 AM,45.0,37.9,76,29.97,10.0,WNW,6.9,-,N/A,,Overcast,300,2013-04-11 14:54:00
11:04 AM,44.6,37.4,76,29.99,10.0,NW,6.9,-,N/A,,Overcast,310,2013-04-11 15:04:00
11:33 AM,46.4,37.4,71,29.99,10.0,Variable,4.6,-,N/A,,Overcast,0,2013-04-11 15:33:00
11:54 AM,46.0,37.0,71,29.98,10.0,Variable,4.6,-,N/A,,Overcast,0,2013-04-11 15:54:00
1:54 PM,48.9,35.1,59,29.98,10.0,WNW,5.8,-,N/A,,Overcast,290,2013-04-11 17:54:00
2:54 PM,48.0,33.1,56,29.99,10.0,North,6.9,-,N/A,,Overcast,350,2013-04-11 18:54:00
3:54 PM,45.0,30.0,56,29.99,10.0,North,6.9,-,N/A,,Overcast,10,2013-04-11 19:54:00
4:54 PM,44.1,30.9,60,29.99,10.0,North,5.8,-,N/A,,Overcast,350,2013-04-11 20:54:00
5:54 PM,42.1,30.0,62,30.01,10.0,North,6.9,-,N/A,,Overcast,360,2013-04-11 21:54:00
6:54 PM,39.9,30.0,68,30.04,10.0,North,4.6,-,N/A,,Overcast,350,2013-04-11 22:54:00
7:54 PM,39.0,30.0,70,30.01,10.0,ENE,8.1,-,0.00,,Overcast,60,2013-04-11 23:54:00
8:54 PM,37.9,24.1,57,30.06,10.0,ESE,4.6,-,N/A,,Overcast,110,2013-04-12 00:54:00
9:54 PM,37.0,28.9,73,30.08,9.0,North,4.6,-,0.00,Rain,Light Rain,10,2013-04-12 01:54:00
10:54 PM,35.1,32.0,89,30.09,9.0,ENE,3.5,-,0.06,Rain,Light Rain,60,2013-04-12 02:54:00
11:54 PM,35.1,32.0,89,30.06,10.0,East,3.5,-,0.01,,Overcast,80,2013-04-12 03:54:00